Flag for France Weather past 2 weeks in Nancy, France

Now
63 °F

Clear.


Feels Like: 63 °F
Forecast: 57 / 72 °F
Wind: 5 mph from Southwest

Location: Nancy / Ochey

Current Time: Aug 29, 2014 at 10:58:05 PM

Latest Report: Aug 29, 2014 at 9:00 PM


Visibility: N/A

Pressure: 30.07 "Hg

Humidity: 83%

Dew point: 57 °F

Location of NancyLocation

Historic Weather in Nancy — Graph

°F

Nancy temperature yesterday

Maximum temperature yesterday: 73 °F (at 3:30 PM)
Minimum temperature yesterday: 55 °F (at 1:30 AM)
Average temperature yesterday: 63 °F

Past Weeks' High & Low Weather Summary

 TemperatureHumidityPressure
High73 °F (Aug 28, 3:30 PM)100% (Aug 15, 8:00 AM)30.21 "Hg (Aug 15, 8:00 AM)
Low45 °F (Aug 21, 7:00 AM)40% (Aug 24, 5:30 PM)29.68 "Hg (Aug 26, 2:30 AM)
Average58 °F79%30.00 "Hg
* Reported Aug 14 9:00 PM — Aug 29 9:00 PM, Nancy, Weather by CustomWeather, © 2014

Note: Actual official high and low records may vary slightly from our data, if they occured in-between our weather recording intervals... More about our weather records

Advertising

Nancy weather history for previous 24 hours

 ConditionsComfort  
Time TempWeatherWind HumidityBarometerVisibility
9:00 PM
Aug 29
63 °FClear.5 mph83%30.07 "HgN/A
8:30 PM64 °FClear.5 mph78%30.07 "HgN/A
8:00 PM66 °FClear.3 mph78%30.07 "HgN/A
7:30 PM68 °FClear.7 mph73%30.07 "HgN/A
7:00 PM70 °FClear.8 mph69%30.07 "HgN/A
6:30 PM70 °FClear.9 mph69%30.07 "HgN/A
6:00 PM70 °FClear.12 mph64%30.07 "HgN/A
5:30 PM72 °FPassing clouds.12 mph61%30.04 "HgN/A
5:00 PM72 °FBroken clouds.10 mph61%30.04 "HgN/A
4:30 PM73 °FPassing clouds.8 mph57%30.04 "HgN/A
4:00 PM73 °FScattered clouds.10 mph61%30.04 "HgN/A
3:30 PM72 °FPartly sunny.7 mph65%30.04 "HgN/A
3:00 PM73 °FPassing clouds.6 mph65%30.07 "HgN/A
2:30 PM72 °FPartly sunny.6 mph69%30.07 "HgN/A
2:00 PM73 °FScattered clouds.8 mph65%30.07 "HgN/A
1:30 PM68 °FScattered clouds.3 mph78%30.07 "HgN/A
1:00 PM70 °FBroken clouds.6 mph69%30.07 "HgN/A
12:30 PM70 °FBroken clouds.6 mph73%30.07 "HgN/A
12:00 PM70 °FPartly sunny.5 mph69%30.07 "HgN/A
11:30 AM68 °FPartly sunny.3 mph69%30.07 "HgN/A
11:00 AM68 °FMostly cloudy.3 mph64%30.07 "HgN/A
10:30 AM68 °FPartly sunny.2 mph60%30.07 "HgN/A
10:00 AM66 °FPartly sunny.2 mph78%30.07 "HgN/A
9:30 AM63 °FOvercast.2 mph83%30.07 "HgN/A
9:00 AM61 °FPartly sunny.No wind88%30.07 "HgN/A
8:30 AM61 °FPartly sunny.1 mph88%30.07 "HgN/A
8:00 AM59 °FPartly sunny.3 mph88%30.07 "HgN/A
7:30 AM59 °FPassing clouds.3 mph94%30.07 "HgN/A
7:00 AM59 °FClear.No wind88%30.04 "HgN/A
6:30 AM59 °FPartly cloudy.2 mph94%30.04 "HgN/A
6:00 AM59 °FOvercast.2 mph94%30.04 "HgN/A
5:30 AM59 °FClear.5 mph88%30.04 "HgN/A
5:00 AM59 °FPassing clouds.6 mph88%30.04 "HgN/A
4:30 AM59 °FClear.3 mph88%30.04 "HgN/A
4:00 AM59 °FClear.2 mph88%30.04 "HgN/A
3:30 AM59 °FClear.5 mph88%30.04 "HgN/A
3:00 AM59 °FPassing clouds.6 mph88%30.04 "HgN/A
2:30 AM59 °FPassing clouds.6 mph88%30.04 "HgN/A
2:00 AM61 °FPartly cloudy.3 mph83%30.04 "HgN/A
1:30 AM61 °FClear.3 mph88%30.04 "HgN/A
1:00 AM59 °FPassing clouds.3 mph94%30.04 "HgN/A
12:30 AM59 °FClear.3 mph88%30.04 "HgN/A
12:00 AM61 °FClear.3 mph88%30.04 "HgN/A
11:30 PM
Aug 28
61 °FClear.5 mph88%30.04 "HgN/A
11:00 PM63 °FClear.6 mph88%30.04 "HgN/A
10:30 PM63 °FClear.6 mph88%30.04 "HgN/A
10:00 PM64 °FClear.9 mph83%30.04 "HgN/A
Weather by CustomWeather, © 2014

See weather overviewHow to use our weather pages